TimeCDT,TemperatureF,Dew PointF,Humidity,Sea Level PressureIn,VisibilityMPH,Wind Direction,Wind SpeedMPH,Gust SpeedMPH,PrecipitationIn,Events,Conditions,WindDirDegrees,DateUTC
12:13 AM,46.4,32.0,57,30.09,10.0,SSE,13.8,23.0,N/A,,Scattered Clouds,150,2013-04-26 05:13:00
12:33 AM,46.4,32.0,57,30.08,10.0,SSE,16.1,-,N/A,,Scattered Clouds,160,2013-04-26 05:33:00
12:54 AM,48.2,32.0,54,30.07,10.0,SSE,18.4,24.2,N/A,,Clear,160,2013-04-26 05:54:00
1:13 AM,48.2,32.0,54,30.06,10.0,South,19.6,25.3,N/A,,Clear,170,2013-04-26 06:13:00
1:33 AM,48.2,32.0,54,30.05,10.0,South,20.7,26.5,N/A,,Clear,170,2013-04-26 06:33:00
2:13 AM,50.0,32.0,50,30.04,10.0,South,13.8,24.2,N/A,,Clear,180,2013-04-26 07:13:00
2:33 AM,51.8,33.8,50,30.01,10.0,South,20.7,31.1,N/A,,Scattered Clouds,180,2013-04-26 07:33:00
2:54 AM,50.0,33.8,54,30.02,10.0,South,16.1,29.9,N/A,,Scattered Clouds,180,2013-04-26 07:54:00
3:13 AM,48.2,33.8,58,30.02,10.0,South,17.3,29.9,N/A,,Clear,190,2013-04-26 08:13:00
3:33 AM,50.0,33.8,54,30.03,10.0,South,11.5,23.0,N/A,,Clear,190,2013-04-26 08:33:00
3:54 AM,50.0,33.8,54,30.03,10.0,South,6.9,19.6,N/A,,Clear,190,2013-04-26 08:54:00
4:13 AM,50.0,35.6,58,30.03,10.0,South,9.2,18.4,N/A,,Scattered Clouds,190,2013-04-26 09:13:00
4:33 AM,53.6,35.6,51,30.01,10.0,South,17.3,25.3,N/A,,Mostly Cloudy,190,2013-04-26 09:33:00
4:54 AM,50.0,35.6,58,30.01,10.0,South,13.8,25.3,N/A,,Mostly Cloudy,180,2013-04-26 09:54:00
5:13 AM,48.2,35.6,62,30.02,10.0,South,15.0,-,N/A,,Scattered Clouds,180,2013-04-26 10:13:00
5:33 AM,48.2,35.6,62,30.02,10.0,South,12.7,-,N/A,,Scattered Clouds,180,2013-04-26 10:33:00
5:54 AM,48.2,35.6,62,30.02,10.0,South,12.7,18.4,N/A,,Scattered Clouds,190,2013-04-26 10:54:00
6:13 AM,48.2,35.6,62,30.02,10.0,South,12.7,-,N/A,,Clear,180,2013-04-26 11:13:00
6:33 AM,46.4,35.6,66,30.02,10.0,South,10.4,17.3,N/A,,Scattered Clouds,170,2013-04-26 11:33:00
6:53 AM,46.4,35.6,66,30.02,10.0,South,10.4,-,N/A,,Scattered Clouds,170,2013-04-26 11:53:00
7:13 AM,46.4,37.4,71,30.02,10.0,South,10.4,-,N/A,,Clear,170,2013-04-26 12:13:00
7:33 AM,48.2,37.4,66,30.02,10.0,South,11.5,-,N/A,,Clear,180,2013-04-26 12:33:00
7:53 AM,51.8,37.4,58,30.02,10.0,South,10.4,19.6,N/A,,Clear,190,2013-04-26 12:53:00
8:13 AM,53.6,35.6,51,30.02,10.0,South,13.8,20.7,N/A,,Clear,190,2013-04-26 13:13:00
8:34 AM,55.4,35.6,47,30.02,10.0,SSW,12.7,21.9,N/A,,Clear,200,2013-04-26 13:34:00
8:53 AM,57.2,35.6,44,30.02,10.0,SSW,18.4,23.0,N/A,,Clear,200,2013-04-26 13:53:00
9:14 AM,59.0,35.6,42,30.02,10.0,SSW,17.3,24.2,N/A,,Clear,210,2013-04-26 14:14:00
9:33 AM,59.0,35.6,42,30.03,10.0,SW,15.0,25.3,N/A,,Clear,220,2013-04-26 14:33:00
9:53 AM,60.8,37.4,42,30.04,10.0,SW,16.1,26.5,N/A,,Clear,230,2013-04-26 14:53:00
10:13 AM,60.8,37.4,42,30.04,10.0,SW,17.3,25.3,N/A,,Clear,230,2013-04-26 15:13:00
10:33 AM,62.6,35.6,37,30.05,10.0,SW,18.4,25.3,N/A,,Clear,230,2013-04-26 15:33:00
10:53 AM,62.6,35.6,37,30.06,10.0,SW,13.8,23.0,N/A,,Clear,230,2013-04-26 15:53:00
11:13 AM,64.4,35.6,34,30.06,10.0,SW,15.0,20.7,N/A,,Clear,230,2013-04-26 16:13:00
11:33 AM,64.4,35.6,34,30.06,10.0,SW,13.8,24.2,N/A,,Clear,230,2013-04-26 16:33:00
11:53 AM,64.4,33.8,32,30.06,10.0,SW,11.5,21.9,N/A,,Clear,230,2013-04-26 16:53:00
12:13 PM,68.0,33.8,28,30.06,10.0,West,13.8,20.7,N/A,,Clear,260,2013-04-26 17:13:00
12:33 PM,68.0,33.8,28,30.06,10.0,WSW,11.5,19.6,N/A,,Clear,240,2013-04-26 17:33:00
12:53 PM,68.0,33.8,28,30.06,10.0,SW,11.5,19.6,N/A,,Clear,230,2013-04-26 17:53:00
1:13 PM,69.8,35.6,28,30.06,10.0,SW,13.8,18.4,N/A,,Clear,230,2013-04-26 18:13:00
1:33 PM,71.6,35.6,27,30.05,10.0,SW,12.7,16.1,N/A,,Clear,230,2013-04-26 18:33:00
1:53 PM,69.8,32.0,25,30.05,10.0,SW,12.7,18.4,N/A,,Clear,220,2013-04-26 18:53:00
2:14 PM,71.6,30.2,22,30.05,10.0,WSW,9.2,16.1,N/A,,Clear,240,2013-04-26 19:14:00
2:33 PM,73.4,30.2,20,30.05,10.0,WSW,10.4,17.3,N/A,,Clear,250,2013-04-26 19:33:00
2:53 PM,71.6,30.2,22,30.05,10.0,SSW,10.4,-,N/A,,Clear,210,2013-04-26 19:53:00
3:13 PM,73.4,30.2,20,30.04,10.0,WSW,5.8,9.2,N/A,,Clear,250,2013-04-26 20:13:00
3:33 PM,73.4,30.2,20,30.04,10.0,WSW,4.6,-,N/A,,Clear,240,2013-04-26 20:33:00
3:53 PM,73.4,28.4,19,30.04,10.0,WSW,8.1,-,N/A,,Clear,250,2013-04-26 20:53:00
4:13 PM,73.4,28.4,19,30.04,10.0,SW,8.1,-,N/A,,Clear,220,2013-04-26 21:13:00
4:33 PM,75.2,28.4,18,30.04,10.0,West,6.9,-,N/A,,Clear,280,2013-04-26 21:33:00
4:53 PM,73.4,26.6,18,30.04,10.0,West,11.5,-,N/A,,Clear,260,2013-04-26 21:53:00
5:13 PM,73.4,26.6,18,30.05,10.0,West,10.4,-,N/A,,Clear,260,2013-04-26 22:13:00
5:33 PM,73.4,28.4,19,30.05,10.0,WNW,10.4,-,N/A,,Clear,290,2013-04-26 22:33:00
5:53 PM,73.4,28.4,19,30.06,10.0,WNW,9.2,-,N/A,,Clear,290,2013-04-26 22:53:00
6:13 PM,73.4,30.2,20,30.06,10.0,WNW,10.4,-,N/A,,Clear,290,2013-04-26 23:13:00
6:33 PM,71.6,30.2,22,30.06,10.0,WNW,8.1,-,N/A,,Clear,290,2013-04-26 23:33:00
6:53 PM,71.6,32.0,23,30.06,10.0,NW,5.8,-,N/A,,Clear,310,2013-04-26 23:53:00
7:13 PM,69.8,30.2,23,30.07,10.0,NW,6.9,-,N/A,,Clear,310,2013-04-27 00:13:00
7:33 PM,69.8,30.2,23,30.08,10.0,NW,4.6,-,N/A,,Clear,320,2013-04-27 00:33:00
7:53 PM,68.0,30.2,24,30.08,10.0,NNW,6.9,-,N/A,,Clear,330,2013-04-27 00:53:00
8:13 PM,64.4,35.6,34,30.08,10.0,North,3.5,-,N/A,,Clear,350,2013-04-27 01:13:00
8:34 PM,62.6,37.4,39,30.09,10.0,North,4.6,-,N/A,,Clear,350,2013-04-27 01:34:00
8:53 PM,60.8,37.4,42,30.10,10.0,North,3.5,-,N/A,,Clear,350,2013-04-27 01:53:00
9:13 PM,60.8,37.4,42,30.11,10.0,Calm,Calm,-,N/A,,Clear,0,2013-04-27 02:13:00
9:34 PM,60.8,37.4,42,30.11,10.0,Calm,Calm,-,N/A,,Clear,0,2013-04-27 02:34:00
9:53 PM,57.2,39.2,51,30.12,10.0,SSE,6.9,-,N/A,,Clear,150,2013-04-27 02:53:00
10:13 PM,57.2,39.2,51,30.14,10.0,SE,3.5,-,N/A,,Clear,140,2013-04-27 03:13:00
10:34 PM,59.0,37.4,45,30.14,10.0,Calm,Calm,-,N/A,,Clear,0,2013-04-27 03:34:00
10:53 PM,55.4,41.0,58,30.14,10.0,South,3.5,-,N/A,,Clear,170,2013-04-27 03:53:00
11:13 PM,59.0,42.8,55,30.14,10.0,South,4.6,-,N/A,,Clear,190,2013-04-27 04:13:00
11:33 PM,57.2,44.6,63,30.14,10.0,SSW,4.6,-,N/A,,Clear,200,2013-04-27 04:33:00
11:53 PM,57.2,46.4,67,30.14,10.0,SSW,5.8,-,N/A,,Clear,210,2013-04-27 04:53:00